ITY3232 LIME-LIMJ

Flight info

Callsign ITY3232
Flight time 0h 25m
Altitude 13000
Route GEN
Aircraft A20N/M-SDE2E3FGHIRWXY/LB1

Departure

Time 2026-04-18 08:30
Airport Il Caravaggio International Airport (LIME)

Arrival

Time 2026-04-18 08:55
Airport Genoa Cristoforo Colombo Airport (LIMJ)
Time Latitude Longitude Altitude Speed Heading
2026-04-18 08:08 45.66622 9.70113 787 ft 0 kts 195°
2026-04-18 08:22 45.66625 9.70114 787 ft 4 kts 195°
2026-04-18 08:22 45.66651 9.70123 787 ft 4 kts 192°
2026-04-18 08:23 45.66676 9.70129 787 ft 3 kts 185°
2026-04-18 08:23 45.66697 9.70130 787 ft 3 kts 168°
2026-04-18 08:23 45.66711 9.70122 787 ft 2 kts 138°
2026-04-18 08:23 45.66719 9.70111 787 ft 2 kts 118°
2026-04-18 08:24 45.66723 9.70097 787 ft 2 kts 109°
2026-04-18 08:24 45.66726 9.70082 787 ft 2 kts 105°
2026-04-18 08:24 45.66726 9.70085 787 ft 2 kts 104°
2026-04-18 08:24 45.66718 9.70126 787 ft 6 kts 104°
2026-04-18 08:25 45.66705 9.70199 787 ft 9 kts 104°
2026-04-18 08:25 45.66687 9.70301 787 ft 12 kts 104°
2026-04-18 08:25 45.66663 9.70431 787 ft 15 kts 104°
2026-04-18 08:25 45.66635 9.70583 787 ft 17 kts 104°
2026-04-18 08:26 45.66602 9.70757 787 ft 19 kts 105°
2026-04-18 08:26 45.66565 9.70950 787 ft 21 kts 105°
2026-04-18 08:26 45.66519 9.71157 787 ft 23 kts 115°
2026-04-18 08:26 45.66471 9.71377 787 ft 24 kts 103°
2026-04-18 08:27 45.66439 9.71617 787 ft 25 kts 83°
2026-04-18 08:27 45.66470 9.71861 787 ft 26 kts 95°
2026-04-18 08:27 45.66427 9.72112 787 ft 27 kts 105°
2026-04-18 08:27 45.66377 9.72372 787 ft 27 kts 104°
2026-04-18 08:28 45.66374 9.72432 787 ft 4 kts 85°
2026-04-18 08:28 45.66397 9.72471 787 ft 6 kts 28°
2026-04-18 08:28 45.66448 9.72465 787 ft 9 kts 329°
2026-04-18 08:28 45.66467 9.72401 787 ft 0 kts 286°
2026-04-18 08:29 45.66468 9.72401 787 ft 0 kts 286°
2026-04-18 08:29 45.66517 9.72127 787 ft 65 kts 285°
2026-04-18 08:29 45.66690 9.71212 787 ft 126 kts 284°
2026-04-18 08:29 45.66944 9.69826 996 ft 150 kts 285°
2026-04-18 08:30 45.67201 9.68445 1684 ft 142 kts 284°
2026-04-18 08:30 45.67362 9.67022 2137 ft 151 kts 257°
2026-04-18 08:30 45.66865 9.65718 2591 ft 154 kts 223°
2026-04-18 08:30 45.66014 9.64660 2963 ft 171 kts 216°
2026-04-18 08:31 45.65039 9.63546 3432 ft 186 kts 218°
2026-04-18 08:31 45.64052 9.62316 4185 ft 189 kts 221°
2026-04-18 08:31 45.63091 9.61016 5027 ft 191 kts 224°
2026-04-18 08:31 45.62144 9.59669 5842 ft 193 kts 225°
2026-04-18 08:32 45.61187 9.58278 6545 ft 202 kts 226°
2026-04-18 08:32 45.60146 9.56775 7008 ft 223 kts 226°
2026-04-18 08:32 45.59003 9.55137 7439 ft 244 kts 226°
2026-04-18 08:32 45.57785 9.53402 8216 ft 248 kts 226°
2026-04-18 08:33 45.56553 9.51653 9139 ft 252 kts 226°
2026-04-18 08:33 45.55304 9.49868 10027 ft 259 kts 226°
2026-04-18 08:33 45.53982 9.47952 10464 ft 282 kts 227°
2026-04-18 08:33 45.52552 9.45869 10853 ft 306 kts 227°
2026-04-18 08:34 45.51003 9.43617 11210 ft 330 kts 226°
2026-04-18 08:34 45.49338 9.41237 11694 ft 346 kts 224°
2026-04-18 08:34 45.47469 9.39103 12539 ft 352 kts 216°
2026-04-18 08:34 45.45359 9.37272 12980 ft 358 kts 211°
2026-04-18 08:35 45.43198 9.35493 13128 ft 358 kts 211°
2026-04-18 08:35 45.41035 9.33711 13156 ft 359 kts 211°
2026-04-18 08:35 45.38812 9.32097 13164 ft 359 kts 199°
2026-04-18 08:35 45.36349 9.31500 13159 ft 362 kts 184°
2026-04-18 08:36 45.33834 9.31395 13156 ft 361 kts 181°
2026-04-18 08:36 45.31319 9.31366 13155 ft 361 kts 181°
2026-04-18 08:36 45.28798 9.31305 13157 ft 362 kts 182°
2026-04-18 08:36 45.26289 9.31198 13157 ft 361 kts 182°
2026-04-18 08:37 45.23776 9.31060 13158 ft 361 kts 183°
2026-04-18 08:37 45.21260 9.30905 13158 ft 361 kts 183°
2026-04-18 08:37 45.18749 9.30745 13153 ft 361 kts 183°
2026-04-18 08:37 45.16242 9.30586 13157 ft 361 kts 183°
2026-04-18 08:38 45.13724 9.30426 13153 ft 361 kts 183°
2026-04-18 08:38 45.11245 9.30269 13155 ft 361 kts 183°
2026-04-18 08:38 45.08741 9.30109 13153 ft 361 kts 183°
2026-04-18 08:38 45.06230 9.29951 13153 ft 361 kts 183°
2026-04-18 08:39 45.03721 9.29794 13149 ft 361 kts 183°
2026-04-18 08:39 45.01213 9.29637 13149 ft 361 kts 183°
2026-04-18 08:39 44.98703 9.29478 13150 ft 361 kts 183°
2026-04-18 08:39 44.96192 9.29321 13146 ft 361 kts 183°
2026-04-18 08:40 44.93680 9.29163 13143 ft 361 kts 183°
2026-04-18 08:40 44.91172 9.29007 13148 ft 361 kts 183°
2026-04-18 08:40 44.88661 9.28851 13145 ft 360 kts 183°
2026-04-18 08:40 44.86155 9.28693 13148 ft 361 kts 183°
2026-04-18 08:41 44.83646 9.28534 13044 ft 361 kts 183°
2026-04-18 08:41 44.81130 9.28376 12636 ft 362 kts 183°
2026-04-18 08:41 44.78629 9.28220 11954 ft 366 kts 183°
2026-04-18 08:41 44.76074 9.28060 11218 ft 369 kts 182°
2026-04-18 08:42 44.73516 9.27902 10754 ft 364 kts 183°
2026-04-18 08:42 44.71038 9.27747 10599 ft 349 kts 183°
2026-04-18 08:42 44.68661 9.27598 10464 ft 335 kts 182°
2026-04-18 08:42 44.66376 9.27458 10346 ft 322 kts 182°
2026-04-18 08:43 44.64882 9.27367 10269 ft 313 kts 182°
2026-04-18 08:43 44.62745 9.27236 10131 ft 302 kts 182°
2026-04-18 08:43 44.60656 9.27108 9728 ft 299 kts 182°
2026-04-18 08:43 44.58610 9.26981 9338 ft 297 kts 182°
2026-04-18 08:44 44.56577 9.26855 9127 ft 288 kts 182°
2026-04-18 08:44 44.55898 9.26812 8953 ft 290 kts 182°
2026-04-18 08:44 44.55028 9.26759 8705 ft 293 kts 182°
2026-04-18 08:44 44.52993 9.26632 8261 ft 293 kts 182°
2026-04-18 08:45 44.50961 9.26506 7881 ft 291 kts 182°
2026-04-18 08:45 44.48947 9.26382 7494 ft 288 kts 182°
2026-04-18 08:45 44.46952 9.26260 7210 ft 283 kts 182°
2026-04-18 08:45 44.44996 9.26140 6877 ft 280 kts 182°
2026-04-18 08:46 44.43059 9.26022 6510 ft 278 kts 182°
2026-04-18 08:46 44.41128 9.25917 6144 ft 276 kts 182°
2026-04-18 08:46 44.39225 9.25814 5906 ft 269 kts 182°
2026-04-18 08:46 44.37411 9.25414 5671 ft 262 kts 198°
2026-04-18 08:47 44.35705 9.24600 5271 ft 263 kts 199°
2026-04-18 08:47 44.33970 9.23752 4853 ft 265 kts 199°
2026-04-18 08:47 44.32227 9.22890 4418 ft 266 kts 199°
2026-04-18 08:47 44.30549 9.21806 3983 ft 266 kts 217°
2026-04-18 08:48 44.29399 9.19851 3580 ft 259 kts 246°
2026-04-18 08:48 44.29072 9.17480 3429 ft 242 kts 272°
2026-04-18 08:48 44.29544 9.15357 3401 ft 222 kts 306°
2026-04-18 08:48 44.30610 9.13886 3397 ft 209 kts 322°
2026-04-18 08:49 44.31858 9.13052 3429 ft 190 kts 341°
2026-04-18 08:49 44.33065 9.12519 3399 ft 173 kts 342°
2026-04-18 08:49 44.34195 9.11985 3405 ft 175 kts 333°
2026-04-18 08:49 44.35096 9.10920 3408 ft 172 kts 305°
2026-04-18 08:50 44.35655 9.09458 3405 ft 170 kts 290°
2026-04-18 08:50 44.36024 9.07964 3360 ft 155 kts 285°
2026-04-18 08:50 44.36320 9.06578 3201 ft 145 kts 285°
2026-04-18 08:50 44.36610 9.05262 3012 ft 139 kts 286°
2026-04-18 08:51 44.36893 9.03972 2821 ft 140 kts 286°
2026-04-18 08:51 44.37152 9.02796 2637 ft 138 kts 286°
2026-04-18 08:51 44.37434 9.01511 2448 ft 138 kts 286°
2026-04-18 08:51 44.37713 9.00243 2257 ft 138 kts 286°
2026-04-18 08:52 44.37996 8.98956 2061 ft 138 kts 286°
2026-04-18 08:52 44.38278 8.97676 1864 ft 137 kts 287°
2026-04-18 08:52 44.38554 8.96420 1680 ft 136 kts 287°
2026-04-18 08:52 44.38832 8.95154 1470 ft 136 kts 287°
2026-04-18 08:53 44.39109 8.93894 1290 ft 135 kts 287°
2026-04-18 08:53 44.39386 8.92632 1093 ft 135 kts 287°
2026-04-18 08:53 44.39662 8.91378 911 ft 134 kts 287°
2026-04-18 08:53 44.39954 8.90138 686 ft 133 kts 290°
2026-04-18 08:54 44.40262 8.88927 499 ft 132 kts 286°
2026-04-18 08:54 44.40504 8.87694 363 ft 132 kts 285°
2026-04-18 08:54 44.40745 8.86480 179 ft 131 kts 283°
2026-04-18 08:54 44.40988 8.85247 31 ft 129 kts 284°
2026-04-18 08:55 44.41191 8.84192 24 ft 86 kts 286°
2026-04-18 08:55 44.41315 8.83566 23 ft 60 kts 285°
2026-04-18 08:55 44.41432 8.83138 24 ft 30 kts 313°
2026-04-18 08:55 44.41542 8.83124 29 ft 15 kts 60°
2026-04-18 08:56 44.41532 8.83257 27 ft 15 kts 106°
2026-04-18 08:56 44.41496 8.83423 23 ft 20 kts 108°
2026-04-18 08:56 44.41456 8.83623 22 ft 23 kts 104°
2026-04-18 08:56 44.41413 8.83856 20 ft 26 kts 105°
2026-04-18 08:57 44.41312 8.84374 18 ft 23 kts 97°
2026-04-18 08:57 44.41371 8.84501 18 ft 15 kts 60°
2026-04-18 08:57 44.41418 8.84528 18 ft 5 kts 320°
2026-04-18 08:58 44.41452 8.84486 18 ft 8 kts 322°
2026-04-18 08:58 44.41467 8.84471 18 ft 0 kts 322°